Tracking 29892 objects as of 21-Nov-2024
HD Live streaming from Space Station
objects crossing your sky now

STARLINK-31446

Track STARLINK-31446 now!
10-day predictions
STARLINK-31446 is classified as:


NORAD ID: 59315
Int'l Code: 2024-056V
Perigee: 450.5 km
Apogee: 452.0 km
Inclination: 43.0 °
Period: 93.5 minutes
Semi major axis: 6822 km
RCS: Unknown
Launch date: March 24, 2024
Source: United States (US)
Launch site: AIR FORCE EASTERN TEST RANGE (AFETR)
Your satellite tracking list
Your tracking list is empty




NASA's NSSDC Master Catalog

Two Line Element Set (TLE):
1 59315U 24056V   24325.60999234 -.00001323  00000-0 -24426-4 0  9991
2 59315  43.0025  45.9228 0001128 268.1094  91.9633 15.40676275 38455
Source of the keplerian elements: AFSPC